Hartford, CT

5:37 AM EST on December 14, 2017 (GMT -0500)
Hartford-brainard

Weather History for KHFD - May, 2014

Change the Weather History Date:

Friday, May 16, 2014

  Actual Average Record
Temperature  
Mean Temperature 64 °F -  
Max Temperature 66 °F 69 °F 90 °F (1951)
Min Temperature 63 °F 47 °F 35 °F (1947)
Growing Degree Days 14 (Base 50)    
Moisture  
Dew Point 62 °F    
Average Humidity 89    
Maximum Humidity 93    
Minimum Humidity 84    
Precipitation  
Precipitation 0.08 in - - ()
Sea Level Pressure  
Sea Level Pressure 30.01 in    
Wind  
Wind Speed 11 mph (SSE)    
Max Wind Speed 16 mph    
Max Gust Speed 30 mph    
Visibility 8 miles    
Events Rain    
Averages and records for this station are not official NWS values.
T = Trace of Precipitation, MM = Missing Value Source: NWS Daily Summary

Daily Weather History Graph

Daily Weather History Graph

Search for Another Location

Airport or City:

Trip Planner

Search our weather history database for the weather conditions in past years. The results will help you decide how hot, cold, wet, or windy it might be!

Date:

Astronomy

May. 16, 2014 Rise Set
Actual Time 5:29 AM EDT 8:04 PM EDT
Civil Twilight 4:58 AM EDT 8:36 PM EDT
Nautical Twilight 4:18 AM EDT 9:16 PM EDT
Astronomical Twilight 3:33 AM EDT 10:01 PM EDT
Moon 10:08 PM EDT (5/16) 7:08 AM EDT (5/16)
Length of Visible Light 15h 38m
Length of Day
14h 34m
Waning Gibbous, 95% of the Moon is Illuminated
May 16
Waning Gibbous
May 21
Last Quarter
May 28
New
Jun 5
First Quarter
Jun 13
Full

Hourly Weather History & Observations

Time (EDT) Temp. Dew Point Humidity Pressure Visibility Wind Dir Wind Speed Gust Speed Precip Events Conditions
12:06 AM 64.9 °F 63.0 °F 93% 30.14 in 8.0 mi SSE 8.1 mph - N/A   Overcast
12:19 AM 64.9 °F 63.0 °F 93% 30.14 in 8.0 mi SSE 13.8 mph 18.4 mph N/A   Overcast
12:53 AM 64.9 °F 63.0 °F 93% 30.13 in 8.0 mi SSE 10.4 mph - N/A   Overcast
2:16 AM 64.0 °F 61.0 °F 90% 30.12 in 9.0 mi SSE 9.2 mph - N/A   Overcast
2:53 AM 64.0 °F 61.0 °F 90% 30.11 in 10.0 mi SSE 9.2 mph - N/A   Overcast
4:31 AM 64.0 °F 60.1 °F 87% 30.08 in 10.0 mi SSE 9.2 mph - N/A   Overcast
4:53 AM 63.0 °F 60.1 °F 90% 30.07 in 10.0 mi SSE 8.1 mph - N/A   Mostly Cloudy
5:53 AM 64.0 °F 60.1 °F 87% 30.05 in 10.0 mi SE 10.4 mph 18.4 mph N/A   Overcast
6:53 AM 64.9 °F 60.1 °F 84% 30.05 in 7.0 mi SSE 12.7 mph - 0.00 in Rain Light Rain
7:37 AM 64.9 °F 61.0 °F 87% 30.04 in 7.0 mi SSE 9.2 mph 20.7 mph 0.01 in Rain Light Rain
7:53 AM 64.9 °F 61.0 °F 87% 30.04 in 3.0 mi SSE 8.1 mph 19.6 mph 0.01 in Rain Light Rain
8:53 AM 64.9 °F 61.0 °F 87% 30.03 in 4.0 mi SSE 13.8 mph 21.9 mph 0.01 in Rain Light Rain
9:53 AM 64.9 °F 62.1 °F 90% 30.02 in 8.0 mi SSE 11.5 mph 20.7 mph 0.01 in   Overcast
10:53 AM 64.9 °F 62.1 °F 90% 30.02 in 8.0 mi SSE 11.5 mph 21.9 mph 0.00 in   Overcast
11:53 AM 66.0 °F 62.1 °F 87% 30.02 in 7.0 mi SSE 15.0 mph 23.0 mph 0.00 in Rain Light Rain
12:53 PM 66.0 °F 62.1 °F 87% 30.01 in 7.0 mi SSE 10.4 mph 19.6 mph 0.02 in   Overcast
1:53 PM 66.9 °F 63.0 °F 87% 29.99 in 7.0 mi SSE 11.5 mph 20.7 mph 0.00 in Rain Light Rain
2:53 PM 66.9 °F 63.0 °F 87% 29.98 in 6.0 mi SSE 15.0 mph 21.9 mph 0.01 in Rain Light Rain
4:53 PM 66.9 °F 63.0 °F 87% 29.96 in 7.0 mi SSE 13.8 mph 20.7 mph N/A   Overcast
5:53 PM 66.9 °F 63.0 °F 87% 29.93 in 7.0 mi SSE 12.7 mph 25.3 mph N/A   Overcast
6:53 PM 66.0 °F 63.0 °F 90% 29.94 in 4.0 mi SSE 12.7 mph 19.6 mph 0.01 in Rain Light Rain
7:09 PM 66.0 °F 63.0 °F 90% 29.93 in 8.0 mi South 13.8 mph 20.7 mph 0.00 in   Overcast
7:25 PM 66.0 °F 63.0 °F 90% 29.94 in 7.0 mi SSE 11.5 mph 20.7 mph 0.00 in   Overcast
7:53 PM 66.0 °F 63.0 °F 90% 29.94 in 6.0 mi SSE 12.7 mph - 0.00 in   Overcast
8:53 PM 66.0 °F 63.0 °F 90% 29.93 in 7.0 mi South 12.7 mph 18.4 mph 0.01 in Rain Light Rain
9:38 PM 66.0 °F 63.0 °F 90% 29.92 in 9.0 mi SSE 12.7 mph 24.2 mph 0.00 in   Overcast
9:53 PM 66.0 °F 63.0 °F 90% 29.92 in 9.0 mi SSE 12.7 mph 20.7 mph 0.00 in   Overcast
10:11 PM 66.0 °F 63.0 °F 90% 29.91 in 9.0 mi SSE 15.0 mph 21.9 mph N/A   Overcast
11:53 PM 66.9 °F 64.0 °F 90% 29.87 in 7.0 mi SSE 16.1 mph 29.9 mph 0.00 in Rain Light Rain